Location: Barruelo
(41.2448°N, 3.8231°W)
Time: 02:02:21
(UTC+00:00)

SOZ - Pass Details

Date: 11 December 2025
Orbit: 281 x 12148 km, 52.0° (Epoch: 14 January)

Event Time Altitude Azimuth Distance (km) Brightness Sun altitude
Rises 17:26:14 0° 240° (WSW) 3,530 11.4 -7.5°
Reaches altitude 10° 17:29:39 10° 245° (WSW) 1,818 9.2 -8.1°
Maximum altitude 17:32:56 52° 324° (NW) 427 4.4 -8.7°
Enters shadow 17:34:45 12° 43° (NE) 1,022 5.7 -9.0°
